Location: Kuppenheim
(48.8299°N, 8.2568°E)
Time: 09:58:37
(UTC+00:00)

NPP - Pass Details

Date: 20 June 2021
Orbit: 826 x 828 km, 98.7° (Epoch: 27 July)

Event Time Altitude Azimuth Distance (km) Brightness Sun altitude
Rises 01:23:48 0° 14° (NNE) 3,380 8.6 -13.3°
Reaches altitude 10° 01:26:10 10° 15° (NNE) 2,442 7.5 -13.1°
Maximum altitude 01:31:36 89° 106° (ESE) 835 3.7 -12.7°
Enters shadow 01:35:58 16° 196° (SSW) 2,025 5.1 -12.3°
